Location: Ferintosh
(52.7647°N, 112.9692°W)
Time: 14:31:22
(UTC+00:00)

Transit 2A Rocket - Pass Details

Date: 20 May 2024
Orbit: 583 x 910 km, 66.7° (Epoch: 22 June)

Event Time Altitude Azimuth Distance (km) Brightness Sun altitude
Rises 21:54:19 0° 311° (NW) 3,434 8.5 47.1°
Reaches altitude 10° 21:57:41 10° 291° (WNW) 2,539 8.2 46.6°
Maximum altitude 22:01:10 16° 255° (WSW) 2,153 8.4 46.2°
Drops below altitude 10° 22:04:42 10° 219° (SW) 2,586 8.7 45.7°
Sets 22:08:12 0° 199° (SSW) 3,529 8.9 45.3°
